This demonstration page uses our WeatherBlox Daily Observations layout. Learn more.

Left ArrowRight Arrow

38.89511, -77.03637

Hourly Observations for May 19, 2019

Temp ( °F °C ) Dew Point ( °F °C ) Humidity (%) Winds ( mph kmh ) Pressure ( in mb ) Visibility ( mi km ) Precip ( " mm )
12:33 am 00:33 Mostly Cloudy with Thunderstorms 68 20 58 14.4 70 70 S 7 11 30.05 1018 10 16 0.00 0.00
12:52 am 00:52 Cloudy with Thunderstorms 68 20 59 15 73 73 S 7 11 30.05 1018 10 16 0.00 0.03
1:36 am 01:36 Cloudy with Strong Thunderstorms 68 20 63 17.2 84 84 S 12 19 30.01 1016 5 8 0.22 5.59
1:52 am 01:52 Cloudy with Thunderstorms 68 20 62 16.7 81 81 SSE 9 15 30.02 1017 10 16 0.24 6.10
2:10 am 02:10 Mostly Cloudy 68 20 62 16.7 81 81 Calm 30.04 1017 10 16 0.00 0.00
2:52 am 02:52 Mostly Cloudy 67 19.4 63 17.2 87 87 S 7 11 30.03 1017 10 16 0.00 0.00
3:52 am 03:52 Partly Cloudy 66 18.9 62 16.7 87 87 S 7 11 30.03 1017 10 16 0.00 0.00
4:52 am 04:52 Mostly Clear 66 18.9 62 16.7 87 87 S 7 11 30.03 1017 10 16 0.00 0.00
5:52 am 05:52 Mostly Clear 65 18.3 62 16.7 90 90 S 3 6 30.04 1017 10 16 0.00 0.00
6:52 am 06:52 Mostly Cloudy 66 18.9 63 17.2 90 90 S 6 9 30.04 1017 7 11 0.00 0.00
7:52 am 07:52 Mostly Cloudy 68 20 64 17.8 87 87 S 7 11 30.04 1017 10 16 0.00 0.00
8:52 am 08:52 Mostly Cloudy 71 21.7 65 18.3 81 81 S 6 9 30.03 1017 10 16 0.00 0.00
9:52 am 09:52 Mostly Cloudy 74 23.3 67 19.4 79 79 SSE 6 9 30.03 1017 10 16 0.00 0.00
10:52 am 10:52 Mostly Cloudy 77 25 68 20 74 74 S 8 13 30.02 1017 10 16 0.00 0.00
11:52 am 11:52 Sunny 80 26.7 69 20.6 69 69 S 8 13 30.01 1016 10 16 0.00 0.00
12:52 pm 12:52 Mostly Cloudy 83 28.3 70 21.1 65 65 S 8 13 30.00 1016 10 16 0.00 0.00
1:52 pm 13:52 Mostly Cloudy 84 28.9 70 21.1 63 63 S 13 20 29.97 1015 10 16 0.00 0.00
2:52 pm 14:52 Mostly Cloudy 83 28.3 71 21.7 67 67 S 13 20 29.95 1014 10 16 0.00 0.00
3:52 pm 15:52 Mostly Cloudy 86 30 71 21.7 61 61 S 10 17 29.92 1013 10 16 0.00 0.00
4:52 pm 16:52 Mostly Cloudy 85 29.4 69 20.6 59 59 S 15 24 29.90 1012 10 16 0.00 0.00
5:52 pm 17:52 Mostly Cloudy 85 29.4 69 20.6 59 59 S 14 22 29.88 1012 10 16 0.00 0.00
6:52 pm 18:52 Mostly Cloudy 83 28.3 67 19.4 59 59 S 13 20 29.86 1011 10 16 0.00 0.00
7:52 pm 19:52 Mostly Cloudy 82 27.8 66 18.9 58 58 S 8 13 29.88 1012 10 16 0.00 0.00
8:52 pm 20:52 Mostly Cloudy 81 27.2 65 18.3 58 58 S 12 19 29.87 1012 10 16 0.00 0.00
9:52 pm 21:52 Mostly Cloudy 78 25.6 64 17.8 62 62 S 12 19 29.90 1013 10 16 0.00 0.00
10:52 pm 22:52 Mostly Cloudy 76 24.4 64 17.8 67 67 S 10 17 29.91 1013 10 16 0.00 0.00
11:52 pm 23:52 Clear 75 23.9 64 17.8 69 69 S 9 15 29.91 1013 10 16 0.00 0.00

Powered by AerisWeather